Location: Arrington
(35.8681°N, 86.7092°W)
Time: 19:43:52
(UTC+00:00)

CZ-4 R/B - Pass Details

Date: 23 November 2019
Orbit: 529 x 601 km, 97.8° (Epoch: 07 December)

Event Time Altitude Azimuth Distance (km) Brightness Sun altitude
Rises 00:53:58 0° 194° (SSW) 2,803 5.2 -27.7°
Reaches altitude 10° 00:56:26 10° 207° (SSW) 1,897 4.4 -28.2°
Maximum altitude 00:59:50 25° 263° (W) 1,184 3.6 -28.9°
Drops below altitude 10° 01:03:12 10° 320° (NW) 1,874 4.4 -29.6°
Sets 01:05:38 0° 334° (NNW) 2,761 5.2 -30.1°
